Regional Weather Roundup
Issued by NWS

Home | Current Version | Previous Version | Graphics & Text | Print | Product List | Glossary On
Versions: 1 2 3 4 5 6 7 8 9 10 11 12 13 14 15 16 17 18 19 20 21 22 23 24 25 26 27 28 29 30 31 32 33 34 35 36 37 38 39 40 41 42 43 44 45 46 47 48 49 50
000
ASUS43 KDMX 021606
RWRIA

WEATHER ROUNDUP FOR IOWA
NATIONAL WEATHER SERVICE DES MOINES IA
1000 AM CST FRI DEC 02 2016

NOTE: "FAIR" INDICATES FEW OR NO CLOUDS BELOW 12,000 FEET WITH NO
SIGNIFICANT WEATHER AND/OR OBSTRUCTIONS TO VISIBILITY.

* - THESE STATIONS ARE NOT NWS STATIONS...THUS NOT UNDER NWS
QUALITY CONTROL.  THEY ALSO DO NOT REPORT WEATHER SUCH
AS PRECIPITATION OR FOG.

IAZ001>003-012>014-020>022-031>034-043>046-021700-
   NORTHWEST IOWA

CITY           SKY/WX    TMP DP  RH WIND       PRES   REMARKS
CARROLL *      CLOUDY    36  34  93 N7        30.23S WCI  30
CHEROKEE *     CLOUDY    33  33 100 NE6       30.24R FOG     WCI  27
DENISON *      CLOUDY    34  32  93 NW3       30.23R
LE MARS *      LGT RAIN  34  32  93 N5        30.26R WCI  30
ORANGE CITY *  CLOUDY    34  30  86 CALM      30.24R
SHELDON *      CLOUDY    32  30  93 N5        30.23R WCI  27
SIOUX CITY     CLOUDY    36  32  85 NW8       30.26R WCI  30
SPENCER        CLOUDY    33  27  78 NW10      30.24R WCI  25
STORM LAKE *   CLOUDY    32  32 100 N8        30.23R FOG     WCI  25
$$

IAZ055>058-069>071-079>083-090>094-021700-
   SOUTHWEST IOWA

CITY           SKY/WX    TMP DP  RH WIND       PRES   REMARKS
ATLANTIC *     CLOUDY    36  32  87 NW7       30.26R WCI  30
AUDUBON *      CLOUDY    36  30  80 CALM      30.26R
CLARINDA *       N/A     34  32  93 CALM      30.29R
COUNCIL BLFS * SUNNY     34  30  86 NW5       30.26R WCI  30
CRESTON *      SUNNY     36  32  87 NW7       30.26R WCI  30
HARLAN  *      CLOUDY    34  32  93 NW6       30.29R WCI  29
LAMONI         SUNNY     38  31  76 NW6       30.25R WCI  33
RED OAK *      SUNNY     36  32  87 CALM      30.27R
SHENANDOAH *   SUNNY     36  32  87 NW5       30.28S WCI  32
$$

IAZ047>049-059>061-072>074-084-021700-
   CENTRAL IOWA

CITY           SKY/WX    TMP DP  RH WIND       PRES   REMARKS
AMES           CLOUDY    36  33  89 N7        30.24R WCI  30
ANKENY *       CLOUDY    37  36  93 VRB6      30.26R WCI  33
BOONE *        CLOUDY    36  32  87 N6        30.23R WCI  31
CHARITON *       N/A     36  32  87 NW6       30.24R WCI  31
DES MOINES     CLOUDY    38  32  79 NW6       30.25R WCI  33
GRINNELL*      CLOUDY    37  32  84 NW8       30.23R WCI  30
KNOXVILLE *    CLOUDY    37  32  81 NW6       30.24R WCI  33
MARSHALLTOWN   CLOUDY    35  31  85 NW8       30.23R WCI  29
NEWTON *       CLOUDY    36  32  87 NW7       30.23R WCI  30
PELLA *        CLOUDY    37  32  82 NW6       30.26R WCI  32
PERRY *        CLOUDY    37  35  92 NW3       30.24R
$$

IAZ004>006-015-016-023>025-035-036-021700-
   NORTH CENTRAL IOWA

CITY           SKY/WX    TMP DP  RH WIND       PRES   REMARKS
ALGONA *       CLOUDY    32  28  86 N7        30.23R WCI  26
CLARION *      CLOUDY    32  30  93 NW8       30.23S WCI  25
ESTHERVILLE    CLOUDY    31  26  82 NW10      30.23R WCI  22
FORT DODGE *   CLOUDY    34  28  80 N7        30.24R WCI  28
MASON CITY     CLOUDY    31  24  75 NW14      30.24R WCI  21
FOREST CITY *  CLOUDY    32  25  74 NW14G20   30.23R WCI  22
WEBSTER CITY * CLOUDY    34  32  93 N9        30.22R WCI  26
IOWA FALLS *   CLOUDY    34  30  84 NW10      30.23R WCI  26
$$

IAZ007>011-017>019-026>030-037>042-050>054-066-021700-
   NORTHEAST IOWA

CITY           SKY/WX    TMP DP  RH WIND       PRES   REMARKS
CEDAR RAPIDS   CLOUDY    36  33  89 NW10      30.21R WCI  28
CHARLES CITY * CLOUDY    32  27  80 NW10      30.22R WCI  24
CLINTON *      CLOUDY    38  34  85 NW13      30.21R WCI  30
DECORAH *      CLOUDY    32  25  74 NW7       30.18R WCI  26
DUBUQUE        CLOUDY    34  29  82 NW10      30.18R WCI  26
MONTICELLO *   CLOUDY    36  30  80 NW14      30.20R WCI  27
OELWEIN *      CLOUDY    34  27  75 NW13G21   30.21R WCI  25
WATERLOO       CLOUDY    35  27  72 NW15      30.21R WCI  25
$$

IAZ064-065-067-068-078-021700-
   EAST CENTRAL IOWA

CITY           SKY/WX    TMP DP  RH WIND       PRES   REMARKS
DAVENPORT      CLOUDY    37  32  82 NW14      30.22R WCI  28
IOWA CITY      CLOUDY    38  32  79 NW8       30.25R WCI  32
MUSCATINE *    CLOUDY    39  34  81 NW7       30.24R WCI  34
QUAD CITIES    CLOUDY    40  32  73 W8        30.21R WCI  34
$$

IAZ062-063-075>077-085>089-095>099-021700-
   SOUTHEAST IOWA

CITY           SKY/WX    TMP DP  RH WIND       PRES   REMARKS
BURLINGTON     PTSUNNY   40  33  76 NW10      30.23R WCI  33
FAIRFIELD *    PTSUNNY   37  32  81 NW9       30.24R WCI  31
FORT MADISON * MOSUNNY   39  34  81 NW7       30.25R WCI  34
KEOKUK *       CLOUDY    39  32  75 NW6       30.24R WCI  35
OSKALOOSA *    CLOUDY    37  32  83 W9        30.25R WCI  30
CENTERVILLE *    N/A     39  32  75 W7        30.26R WCI  34
OTTUMWA        CLOUDY    38  31  76 NW7       30.24R WCI  33
WASHINGTON *   CLOUDY    37  32  81 NW10      30.25R WCI  30
$$

ABBREVIATIONS USED IN REMARKS
   TC - TEMPERATURES IN CELSIUS
  WCI - WIND CHILL INDEX
   HX - HEAT INDEX
  VSB - VISIBILITY
$$





USA.gov is the U.S. government's official web portal to all federal, state and local government web resources and services.